DW0529 Weather Reports


Display with metric or nautical units.
time (UTC)temp
F
wind
direction
speed
MPH
gust
MPH
rain 1hr
in
rain 24hr
in
rain mn
in
humidity
%
barometer
mb
20260508175559 63 210 0.0 0.0 0.00 0.00 0.00 80 971.4
20260508174542 62 207 0.0 3.0 0.00 0.00 0.00 81 971.5
20260508173521 61 215 0.0 4.0 0.00 0.00 0.00 84 971.6
20260508172501 60 215 0.0 4.0 0.00 0.00 0.00 86 971.7
20260508171440 59 204 0.0 3.0 0.00 0.00 0.00 88 971.8
20260508170441 59 175 0.0 4.0 0.00 0.00 0.00 90 971.7
20260508163157 58 184 0.0 1.0 0.00 0.00 0.00 97 971.5
20260508161036 57 184 0.0 2.0 0.00 0.00 0.00 98 971.4
20260508160034 57 178 0.0 1.0 0.00 0.00 0.00 98 971.4
20260508155001 57 177 0.0 1.0 0.00 0.00 0.00 98 971.4
20260508154018 57 177 0.0 0.0 0.00 0.00 0.00 98 971.4
20260508153037 57 177 0.0 0.0 0.00 0.00 0.00 98 971.5
20260508150922 56 206 0.0 0.0 0.00 0.00 0.00 98 971.6
20260508145928 56 206 0.0 0.0 0.00 0.00 0.00 98 971.5
20260508142624 56 206 0.0 0.0 0.00 0.00 0.00 98 971.5
20260508141556 56 206 0.0 0.0 0.00 0.00 0.00 98 971.7
20260508140613 56 205 0.0 1.0 0.00 0.00 0.00 98 971.5
20260508133356 56 206 0.0 0.0 0.00 0.00 0.00 98 971.2
20260508132407 56 206 0.0 0.0 0.00 0.00 0.00 98 971.1
20260508131426 56 205 0.0 0.0 0.00 0.00 0.00 98 971.1
20260508130352 56 205 0.0 0.0 0.00 0.00 0.00 98 971.1
20260508125340 56 205 0.0 0.0 0.00 0.00 0.00 98 970.9
20260508123157 56 206 0.0 0.0 0.00 0.00 0.00 98 970.7
20260508122205 56 206 0.0 0.0 0.00 0.00 0.00 98 970.7
20260508121221 56 205 0.0 0.0 0.00 0.00 0.00 98 970.7
20260508120210 55 205 0.0 0.0 0.00 0.00 0.00 98 970.7
20260508115218 55 205 0.0 1.0 0.00 0.00 0.00 98 970.7
20260508114152 55 206 0.0 0.0 0.00 0.00 0.00 98 970.6
20260508113205 55 205 0.0 0.0 0.00 0.00 0.00 98 970.6
20260508112139 55 205 0.0 0.0 0.00 0.00 0.00 98 970.6
20260508111111 55 205 0.0 0.0 0.00 0.00 0.00 98 970.6
20260508110126 55 205 0.0 0.0 0.00 0.00 0.00 98 970.6
20260508105136 55 205 0.0 0.0 0.00 0.00 0.00 98 970.5
20260508104200 55 206 0.0 0.0 0.00 0.00 0.00 98 970.6
20260508103218 55 205 0.0 0.0 0.00 0.00 0.00 98 970.6
20260508102204 55 205 0.0 0.0 0.00 0.00 0.00 98 970.5
20260508101135 55 205 0.0 0.0 0.00 0.00 0.00 98 970.6
20260508100135 55 205 0.0 0.0 0.00 0.00 0.00 98 970.6
20260508095103 55 205 0.0 0.0 0.00 0.00 0.00 98 970.6
20260508092857 54 206 0.0 0.0 0.00 0.00 0.00 98 970.6
20260508091859 54 206 0.0 0.0 0.00 0.00 0.00 98 970.7
20260508090915 54 205 0.0 0.0 0.00 0.00 0.00 98 970.7
20260508085845 55 205 0.0 0.0 0.00 0.00 0.00 98 970.7
20260508084849 55 206 0.0 0.0 0.00 0.00 0.00 98 970.8
20260508083831 55 206 0.0 0.0 0.00 0.00 0.00 98 970.9
20260508082806 55 205 0.0 0.0 0.00 0.00 0.00 98 971.1
20260508081749 55 206 0.0 0.0 0.00 0.00 0.00 98 971.0
20260508080739 55 205 0.0 0.0 0.00 0.00 0.00 98 971.2
20260508075720 55 205 0.0 0.0 0.00 0.00 0.00 98 971.3
20260508074703 55 205 0.0 2.0 0.00 0.00 0.00 98 971.2
20260508073639 55 205 0.0 2.0 0.00 0.00 0.00 98 971.2
20260508072657 55 205 0.0 1.0 0.00 0.00 0.00 98 971.2
20260508071644 55 205 0.0 1.0 0.00 0.00 0.00 98 971.2
20260508070632 55 205 0.0 2.0 0.00 0.00 0.00 98 971.2
20260508065612 56 205 0.0 2.0 0.00 0.00 0.00 97 971.1
20260508064544 56 207 0.0 3.0 0.00 0.00 0.00 97 971.1
20260508063559 56 199 0.0 4.0 0.00 0.00 0.00 97 971.1
20260508062531 56 208 0.0 2.0 0.00 0.00 0.00 97 971.0
20260508061523 56 210 0.0 4.0 0.00 0.00 0.00 97 970.9
20260508054205 55 209 0.0 0.0 0.00 0.00 0.00 96 971.0
20260508053230 55 208 0.0 0.0 0.00 0.00 0.00 95 971.0
20260508051122 55 209 0.0 2.0 0.00 0.00 0.00 95 970.9
20260508050133 56 209 0.0 2.0 0.00 0.00 0.00 94 970.9
20260508045119 56 209 0.0 2.0 0.00 0.00 0.00 94 970.8
20260508042936 56 209 0.0 0.0 0.00 0.00 0.00 92 970.6
20260508040749 57 209 0.0 0.0 0.00 0.00 0.00 91 970.3
20260508035723 57 209 0.0 0.0 0.00 0.00 0.00 90 970.1
20260508034702 57 209 0.0 0.0 0.00 0.00 0.00 88 970.0
20260508033719 57 209 0.0 0.0 0.00 0.00 0.00 88 969.9
20260508032724 57 209 0.0 0.0 0.00 0.00 0.00 88 969.7
20260508031742 58 209 0.0 0.0 0.00 0.00 0.00 87 969.6
20260508024444 59 209 0.0 0.0 0.00 0.00 0.00 84 969.3
20260508021235 62 193 0.0 1.0 0.00 0.00 0.00 77 969.0
20260508020203 63 204 0.0 1.0 0.00 0.00 0.00 75 969.0
20260508015228 63 204 0.0 5.0 0.00 0.00 0.00 74 968.9
20260508014155 64 217 0.0 2.0 0.00 0.00 0.00 72 968.8
20260508012115 66 207 0.0 2.0 0.00 0.00 0.00 68 968.9
20260508011044 67 191 0.0 2.0 0.00 0.00 0.00 66 968.9
20260508010044 67 213 0.0 3.0 0.00 0.00 0.00 65 968.9
20260508005043 68 207 0.0 3.0 0.00 0.00 0.00 62 969.0
20260508004103 69 209 0.0 4.0 0.00 0.00 0.00 62 968.9
20260508003109 69 174 0.0 4.0 0.00 0.00 0.00 61 968.8
20260508002111 69 227 0.0 2.0 0.00 0.00 0.00 63 968.9
20260508001116 69 227 0.0 4.0 0.00 0.00 0.00 63 968.9
20260508000113 69 200 0.0 3.0 0.00 0.00 0.00 63 968.9
20260507235117 69 235 1.0 6.0 0.00 0.00 0.00 64 969.0
20260507234128 69 180 1.0 6.0 0.00 0.00 0.00 64 969.0
20260507233104 70 202 1.0 3.0 0.00 0.00 0.00 64 969.1
20260507232046 70 225 0.0 3.0 0.00 0.00 0.00 64 969.1
20260507225921 71 243 1.0 4.0 0.00 0.00 0.00 64 969.1
20260507224914 71 219 1.0 5.0 0.00 0.00 0.00 63 969.2
20260507223912 70 186 2.0 7.0 0.00 0.00 0.00 63 969.2
20260507222924 70 128 2.0 8.0 0.00 0.00 0.00 61 969.3
20260507221905 71 198 2.0 8.0 0.00 0.00 0.00 61 969.3
20260507220844 71 243 1.0 6.0 0.00 0.00 0.00 59 969.5
20260507215858 70 228 2.0 6.0 0.00 0.00 0.00 61 969.5
20260507214844 71 216 2.0 8.0 0.00 0.00 0.00 59 969.7
20260507213852 72 165 2.0 8.0 0.00 0.00 0.00 58 969.8
20260507212910 72 207 1.0 8.0 0.00 0.00 0.00 58 969.8
20260507211905 71 215 3.0 8.0 0.00 0.00 0.00 58 969.9
20260507210920 72 198 2.0 8.0 0.00 0.00 0.00 55 970.1
20260507205938 71 199 3.0 8.0 0.00 0.00 0.00 55 970.2
20260507204956 71 234 2.0 7.0 0.00 0.00 0.00 55 970.3
20260507202811 70 182 2.0 7.0 0.00 0.00 0.00 56 970.4
20260507201738 70 190 2.0 7.0 0.00 0.00 0.00 54 970.5
20260507200801 71 155 2.0 7.0 0.00 0.00 0.00 55 970.7
20260507195817 72 173 2.0 6.0 0.00 0.00 0.00 56 970.7
20260507194832 71 178 1.0 6.0 0.00 0.00 0.00 56 970.8
20260507191534 71 201 1.0 4.0 0.00 0.00 0.00 59 971.0
20260507190537 71 221 1.0 6.0 0.00 0.00 0.00 59 971.0
20260507185525 71 211 1.0 6.0 0.00 0.00 0.00 60 971.1
20260507184505 71 220 1.0 5.0 0.00 0.00 0.00 60 971.1
20260507183514 71 167 1.0 5.0 0.00 0.00 0.00 60 971.2
20260507182514 70 190 1.0 5.0 0.00 0.00 0.00 61 971.2
20260507180410 71 186 0.0 5.0 0.00 0.00 0.00 60 971.2